Time,TemperatureF,DewpointF,PressureIn,WindDirection,WindDirectionDegrees,WindSpeedMPH,WindSpeedGustMPH,Humidity,HourlyPrecipIn,Conditions,Clouds,dailyrainin,SoftwareType,DateUTC
2013-01-12 00:10:00,14.5,11.0,29.75,SE,126,0.0,3.0,86,0.00,,,0.00,weatherlink.com 1.10,2013-01-12 05:10:00,
2013-01-12 00:25:00,15.1,11.0,29.76,SE,126,0.0,3.0,84,0.00,,,0.00,weatherlink.com 1.10,2013-01-12 05:25:00,
2013-01-12 00:40:00,14.5,11.0,29.77,SE,126,0.0,3.0,84,0.00,,,0.00,weatherlink.com 1.10,2013-01-12 05:40:00,
2013-01-12 00:55:00,14.9,10.0,29.77,SE,126,0.0,0.0,82,0.00,,,0.00,weatherlink.com 1.10,2013-01-12 05:55:00,
2013-01-12 01:12:00,15.1,10.0,29.77,SE,126,0.0,5.0,79,0.00,,,0.00,weatherlink.com 1.10,2013-01-12 06:12:00,
2013-01-12 01:26:00,16.6,8.0,29.77,SE,126,2.0,4.0,69,0.00,,,0.00,weatherlink.com 1.10,2013-01-12 06:26:00,
2013-01-12 01:41:00,17.4,3.0,29.77,SE,126,0.0,4.0,53,0.00,,,0.00,weatherlink.com 1.10,2013-01-12 06:41:00,
2013-01-12 01:56:00,16.5,3.0,29.78,North,350,5.0,12.0,55,0.00,,,0.00,weatherlink.com 1.10,2013-01-12 06:56:00,
2013-01-12 02:11:00,12.6,4.0,29.79,North,350,1.0,4.0,67,0.00,,,0.00,weatherlink.com 1.10,2013-01-12 07:11:00,
2013-01-12 02:26:00,9.6,4.0,29.80,North,355,0.0,6.0,77,0.00,,,0.00,weatherlink.com 1.10,2013-01-12 07:26:00,
2013-01-12 02:41:00,8.8,4.0,29.80,NW,313,3.0,7.0,81,0.00,,,0.00,weatherlink.com 1.10,2013-01-12 07:41:00,
2013-01-12 02:56:00,7.8,4.0,29.80,NW,321,0.0,12.0,84,0.00,,,0.00,weatherlink.com 1.10,2013-01-12 07:56:00,
2013-01-12 03:11:00,7.3,4.0,29.81,NNW,348,4.0,11.0,85,0.00,,,0.00,weatherlink.com 1.10,2013-01-12 08:11:00,
2013-01-12 03:26:00,6.8,4.0,29.82,NNW,336,0.0,10.0,86,0.00,,,0.00,weatherlink.com 1.10,2013-01-12 08:26:00,
2013-01-12 03:41:00,7.4,4.0,29.83,NNW,333,1.0,7.0,87,0.00,,,0.00,weatherlink.com 1.10,2013-01-12 08:41:00,
2013-01-12 03:56:00,7.7,5.0,29.83,NNW,332,3.0,7.0,87,0.00,,,0.00,weatherlink.com 1.10,2013-01-12 08:56:00,
2013-01-12 04:11:00,7.3,4.0,29.84,NNW,333,4.0,7.0,86,0.00,,,0.00,weatherlink.com 1.10,2013-01-12 09:11:00,
2013-01-12 04:26:00,6.7,3.0,29.84,NNW,333,4.0,7.0,85,0.00,,,0.00,weatherlink.com 1.10,2013-01-12 09:26:00,
2013-01-12 04:41:00,6.3,3.0,29.84,NNW,334,4.0,7.0,85,0.00,,,0.00,weatherlink.com 1.10,2013-01-12 09:41:00,
2013-01-12 04:56:00,6.0,3.0,29.84,NNW,334,0.0,5.0,85,0.00,,,0.00,weatherlink.com 1.10,2013-01-12 09:56:00,
2013-01-12 05:11:00,5.8,2.0,29.84,NNW,334,0.0,6.0,85,0.00,,,0.00,weatherlink.com 1.10,2013-01-12 10:11:00,
2013-01-12 05:26:00,5.4,2.0,29.83,NNW,334,0.0,1.0,85,0.00,,,0.00,weatherlink.com 1.10,2013-01-12 10:26:00,
2013-01-12 05:41:00,5.3,2.0,29.83,NNW,334,0.0,3.0,85,0.00,,,0.00,weatherlink.com 1.10,2013-01-12 10:41:00,
2013-01-12 05:56:00,5.0,4.0,29.83,NNW,334,0.0,1.0,95,0.00,,,0.00,weatherlink.com 1.10,2013-01-12 10:56:00,
2013-01-12 06:13:00,4.6,1.0,29.83,NNW,334,0.0,5.0,85,0.00,,,0.00,weatherlink.com 1.10,2013-01-12 11:13:00,
2013-01-12 06:27:00,3.9,0.0,29.83,NNW,334,3.0,5.0,84,0.00,,,0.00,weatherlink.com 1.10,2013-01-12 11:27:00,
2013-01-12 06:42:00,3.3,0.0,29.84,NNW,334,5.0,5.0,85,0.00,,,0.00,weatherlink.com 1.10,2013-01-12 11:42:00,
2013-01-12 06:57:00,3.7,1.0,29.84,NNW,334,0.0,4.0,86,0.00,,,0.00,weatherlink.com 1.10,2013-01-12 11:57:00,
2013-01-12 07:12:00,3.8,1.0,29.85,NNW,335,1.0,4.0,86,0.00,,,0.00,weatherlink.com 1.10,2013-01-12 12:12:00,
2013-01-12 07:27:00,3.7,0.0,29.86,NNW,335,0.0,1.0,85,0.00,,,0.00,weatherlink.com 1.10,2013-01-12 12:27:00,
2013-01-12 07:42:00,3.5,0.0,29.86,NNW,334,0.0,0.0,85,0.00,,,0.00,weatherlink.com 1.10,2013-01-12 12:42:00,
2013-01-12 07:57:00,3.8,1.0,29.87,NNW,334,2.0,3.0,86,0.00,,,0.00,weatherlink.com 1.10,2013-01-12 12:57:00,
2013-01-12 08:12:00,3.8,1.0,29.88,NNW,333,0.0,4.0,86,0.00,,,0.00,weatherlink.com 1.10,2013-01-12 13:12:00,
2013-01-12 08:27:00,4.0,1.0,29.88,NNW,330,0.0,3.0,86,0.00,,,0.00,weatherlink.com 1.10,2013-01-12 13:27:00,
2013-01-12 08:42:00,4.0,1.0,29.89,NNW,329,0.0,3.0,86,0.00,,,0.00,weatherlink.com 1.10,2013-01-12 13:42:00,
2013-01-12 08:57:00,4.0,1.0,29.90,NNW,329,0.0,0.0,86,0.00,,,0.00,weatherlink.com 1.10,2013-01-12 13:57:00,
2013-01-12 09:12:00,3.9,0.0,29.90,NNW,329,0.0,0.0,85,0.00,,,0.00,weatherlink.com 1.10,2013-01-12 14:12:00,
2013-01-12 09:27:00,3.9,0.0,29.91,NNW,329,0.0,0.0,85,0.00,,,0.00,weatherlink.com 1.10,2013-01-12 14:27:00,
2013-01-12 09:43:00,4.5,1.0,29.92,NNW,329,0.0,3.0,86,0.00,,,0.00,weatherlink.com 1.10,2013-01-12 14:43:00,
2013-01-12 09:58:00,4.8,2.0,29.93,NNW,329,0.0,3.0,86,0.00,,,0.00,weatherlink.com 1.10,2013-01-12 14:58:00,
2013-01-12 10:13:00,5.1,2.0,29.93,NNW,329,0.0,3.0,86,0.00,,,0.00,weatherlink.com 1.10,2013-01-12 15:13:00,
2013-01-12 10:28:00,5.3,2.0,29.94,NNW,329,0.0,2.0,86,0.00,,,0.00,weatherlink.com 1.10,2013-01-12 15:28:00,
2013-01-12 10:43:00,5.9,3.0,29.94,NNW,330,0.0,1.0,86,0.00,,,0.00,weatherlink.com 1.10,2013-01-12 15:43:00,
2013-01-12 10:58:00,6.3,3.0,29.94,NNW,330,0.0,3.0,86,0.00,,,0.00,weatherlink.com 1.10,2013-01-12 15:58:00,
2013-01-12 11:13:00,6.5,3.0,29.95,NNW,330,0.0,4.0,86,0.00,,,0.00,weatherlink.com 1.10,2013-01-12 16:13:00,
2013-01-12 11:28:00,6.8,4.0,29.95,NNW,330,0.0,0.0,86,0.00,,,0.00,weatherlink.com 1.10,2013-01-12 16:28:00,
2013-01-12 11:43:00,7.2,4.0,29.95,NNW,330,0.0,0.0,86,0.00,,,0.00,weatherlink.com 1.10,2013-01-12 16:43:00,
2013-01-12 11:58:00,7.3,4.0,29.95,NNW,330,0.0,0.0,86,0.00,,,0.00,weatherlink.com 1.10,2013-01-12 16:58:00,
2013-01-12 12:13:00,8.1,5.0,29.95,NNW,330,0.0,1.0,87,0.00,,,0.00,weatherlink.com 1.10,2013-01-12 17:13:00,
2013-01-12 12:28:00,8.3,5.0,29.95,NNW,330,0.0,3.0,86,0.00,,,0.00,weatherlink.com 1.10,2013-01-12 17:28:00,
2013-01-12 12:43:00,8.8,6.0,29.95,NNW,330,0.0,0.0,86,0.00,,,0.00,weatherlink.com 1.10,2013-01-12 17:43:00,
2013-01-12 12:58:00,9.4,6.0,29.94,NNW,330,0.0,2.0,86,0.00,,,0.00,weatherlink.com 1.10,2013-01-12 17:58:00,
2013-01-12 13:14:00,9.3,6.0,29.93,NNW,347,3.0,4.0,85,0.00,,,0.00,weatherlink.com 1.10,2013-01-12 18:14:00,
2013-01-12 13:29:00,9.5,6.0,29.93,North,360,3.0,5.0,84,0.00,,,0.00,weatherlink.com 1.10,2013-01-12 18:29:00,
2013-01-12 13:44:00,9.9,6.0,29.92,SE,125,3.0,7.0,84,0.00,,,0.00,weatherlink.com 1.10,2013-01-12 18:44:00,
2013-01-12 13:59:00,9.4,5.0,29.92,SE,130,2.0,5.0,82,0.00,,,0.00,weatherlink.com 1.10,2013-01-12 18:59:00,
2013-01-12 14:14:00,9.4,5.0,29.91,SE,146,3.0,5.0,81,0.00,,,0.00,weatherlink.com 1.10,2013-01-12 19:14:00,
2013-01-12 14:29:00,11.1,6.0,29.90,SSE,147,2.0,5.0,80,0.00,,,0.00,weatherlink.com 1.10,2013-01-12 19:29:00,
2013-01-12 14:44:00,11.7,6.0,29.90,SSE,159,0.0,6.0,78,0.00,,,0.00,weatherlink.com 1.10,2013-01-12 19:44:00,
2013-01-12 14:59:00,11.6,6.0,29.89,SSE,159,1.0,4.0,78,0.00,,,0.00,weatherlink.com 1.10,2013-01-12 19:59:00,
2013-01-12 15:14:00,12.5,6.0,29.89,SSE,168,3.0,4.0,74,0.00,,,0.00,weatherlink.com 1.10,2013-01-12 20:14:00,
2013-01-12 15:29:00,12.8,6.0,29.89,SSE,168,5.0,6.0,73,0.00,,,0.00,weatherlink.com 1.10,2013-01-12 20:29:00,
2013-01-12 15:44:00,12.9,6.0,29.89,SSE,168,0.0,4.0,74,0.00,,,0.00,weatherlink.com 1.10,2013-01-12 20:44:00,
2013-01-12 15:59:00,13.1,6.0,29.89,SSE,167,0.0,4.0,73,0.00,,,0.00,weatherlink.com 1.10,2013-01-12 20:59:00,
2013-01-12 16:14:00,12.8,5.0,29.89,SSE,159,4.0,9.0,72,0.00,,,0.00,weatherlink.com 1.10,2013-01-12 21:14:00,
2013-01-12 16:30:00,12.5,4.0,29.90,ESE,119,4.0,9.0,70,0.00,,,0.00,weatherlink.com 1.10,2013-01-12 21:30:00,
2013-01-12 16:45:00,12.1,3.0,29.90,ESE,111,2.0,9.0,68,0.00,,,0.00,weatherlink.com 1.10,2013-01-12 21:45:00,
2013-01-12 17:00:00,11.8,3.0,29.91,ESE,112,7.0,10.0,68,0.00,,,0.00,weatherlink.com 1.10,2013-01-12 22:00:00,
2013-01-12 17:15:00,11.5,3.0,29.91,ESE,119,5.0,10.0,69,0.00,,,0.00,weatherlink.com 1.10,2013-01-12 22:15:00,
2013-01-12 17:30:00,11.3,3.0,29.91,ESE,118,4.0,8.0,69,0.00,,,0.00,weatherlink.com 1.10,2013-01-12 22:30:00,
2013-01-12 17:45:00,11.3,3.0,29.92,ESE,115,2.0,8.0,68,0.00,,,0.00,weatherlink.com 1.10,2013-01-12 22:45:00,
2013-01-12 18:00:00,10.6,2.0,29.92,ESE,121,0.0,10.0,67,0.00,,,0.00,weatherlink.com 1.10,2013-01-12 23:00:00,
2013-01-12 18:15:00,10.0,1.0,29.93,ESE,122,0.0,13.0,67,0.00,,,0.00,weatherlink.com 1.10,2013-01-12 23:15:00,
2013-01-12 18:30:00,9.7,1.0,29.93,ESE,118,4.0,9.0,68,0.00,,,0.00,weatherlink.com 1.10,2013-01-12 23:30:00,
2013-01-12 18:45:00,9.5,2.0,29.93,ESE,118,3.0,7.0,70,0.00,,,0.00,weatherlink.com 1.10,2013-01-12 23:45:00,
2013-01-12 19:00:00,9.1,2.0,29.94,ESE,117,1.0,9.0,71,0.00,,,0.00,weatherlink.com 1.10,2013-01-13 00:00:00,
2013-01-12 19:15:00,8.9,2.0,29.94,ESE,118,1.0,9.0,72,0.00,,,0.00,weatherlink.com 1.10,2013-01-13 00:15:00,
2013-01-12 19:30:00,8.7,1.0,29.95,ESE,119,0.0,8.0,72,0.00,,,0.00,weatherlink.com 1.10,2013-01-13 00:30:00,
2013-01-12 19:45:00,8.7,1.0,29.95,ESE,119,3.0,5.0,72,0.00,,,0.00,weatherlink.com 1.10,2013-01-13 00:45:00,
2013-01-12 20:01:00,8.8,2.0,29.95,ESE,119,0.0,4.0,73,0.00,,,0.00,weatherlink.com 1.10,2013-01-13 01:01:00,
2013-01-12 20:16:00,8.8,2.0,29.95,ESE,119,0.0,3.0,74,0.00,,,0.00,weatherlink.com 1.10,2013-01-13 01:16:00,
2013-01-12 20:31:00,8.7,2.0,29.95,ESE,119,1.0,4.0,74,0.00,,,0.00,weatherlink.com 1.10,2013-01-13 01:31:00,
2013-01-12 20:46:00,8.8,2.0,29.95,ESE,119,0.0,4.0,74,0.00,,,0.00,weatherlink.com 1.10,2013-01-13 01:46:00,
2013-01-12 21:01:00,8.7,2.0,29.95,ESE,119,0.0,3.0,74,0.00,,,0.00,weatherlink.com 1.10,2013-01-13 02:01:00,
2013-01-12 21:16:00,8.6,2.0,29.96,ESE,119,0.0,4.0,74,0.00,,,0.00,weatherlink.com 1.10,2013-01-13 02:16:00,
2013-01-12 21:31:00,8.4,1.0,29.95,ESE,119,1.0,3.0,73,0.00,,,0.00,weatherlink.com 1.10,2013-01-13 02:31:00,
2013-01-12 21:46:00,7.9,1.0,29.95,ESE,119,0.0,0.0,73,0.00,,,0.00,weatherlink.com 1.10,2013-01-13 02:46:00,
2013-01-12 22:01:00,7.5,1.0,29.95,ESE,119,0.0,0.0,75,0.00,,,0.00,weatherlink.com 1.10,2013-01-13 03:01:00,
2013-01-12 22:16:00,7.1,1.0,29.96,ESE,119,0.0,0.0,77,0.00,,,0.00,weatherlink.com 1.10,2013-01-13 03:16:00,
2013-01-12 22:31:00,6.7,2.0,29.96,ESE,119,0.0,0.0,79,0.00,,,0.00,weatherlink.com 1.10,2013-01-13 03:31:00,
2013-01-12 22:46:00,6.4,1.0,29.95,ESE,119,0.0,0.0,79,0.00,,,0.00,weatherlink.com 1.10,2013-01-13 03:46:00,
2013-01-12 23:01:00,6.0,1.0,29.95,ESE,119,0.0,0.0,80,0.00,,,0.00,weatherlink.com 1.10,2013-01-13 04:01:00,
2013-01-12 23:16:00,5.8,1.0,29.96,ESE,119,0.0,0.0,81,0.00,,,0.00,weatherlink.com 1.10,2013-01-13 04:16:00,
2013-01-12 23:32:00,5.7,1.0,29.96,ESE,119,0.0,0.0,81,0.00,,,0.00,weatherlink.com 1.10,2013-01-13 04:32:00,
2013-01-12 23:47:00,5.7,1.0,29.96,ESE,119,0.0,0.0,82,0.00,,,0.00,weatherlink.com 1.10,2013-01-13 04:47:00,